Regional Weather Roundup
Issued by NWS

Home | Current Version | Previous Version | Graphics & Text | Print | Product List | Glossary On
Versions: 1 2 3 4 5 6 7 8 9 10 11 12 13 14 15 16 17 18 19 20 21 22 23 24 25 26 27 28 29 30 31 32 33 34 35 36 37 38 39 40 41 42 43 44 45 46 47 48 49 50
000
ASUS43 KDMX 172107
RWRIA

WEATHER ROUNDUP FOR IOWA
NATIONAL WEATHER SERVICE DES MOINES IA
400 PM CDT FRI APR 17 2015

NOTE: "FAIR" INDICATES FEW OR NO CLOUDS BELOW 12,000 FEET WITH NO
SIGNIFICANT WEATHER AND/OR OBSTRUCTIONS TO VISIBILITY.

* - THESE STATIONS ARE NOT NWS STATIONS...THUS NOT UNDER NWS
QUALITY CONTROL.  THEY ALSO DO NOT REPORT WEATHER SUCH
AS PRECIPITATION OR FOG.

IAZ001>003-012>014-020>022-031>034-043>046-172200-
   NORTHWEST IOWA

CITY           SKY/WX    TMP DP  RH WIND       PRES   REMARKS
CARROLL *      MOSUNNY   77  46  33 E5        30.01F
CHEROKEE *     PTSUNNY   73  45  35 SE3       30.03F
DENISON *      PTSUNNY   75  48  38 S5G12     30.00F
LE MARS *      PTSUNNY   75  45  33 SE5       30.04F
ORANGE CITY *  MOSUNNY   73  45  35 CALM      30.04F
SHELDON *      MOSUNNY   73  43  33 E6        30.03F
SIOUX CITY     CLOUDY    76  47  35 VRB3      30.03F
SPENCER        SUNNY     76  43  30 W6        30.03F
STORM LAKE *   SUNNY     73  43  33 NE6       30.04F
$$

IAZ055>058-069>071-079>083-090>094-172200-
   SOUTHWEST IOWA

CITY           SKY/WX    TMP DP  RH WIND       PRES   REMARKS
ATLANTIC *     PTSUNNY   75  52  43 VRB6      30.01F
AUDUBON *      MOSUNNY   77  48  36 SE5       30.03F
CLARINDA *     MOSUNNY   75  54  46 E6G12     30.01F
COUNCIL BLFS * MOSUNNY   75  54  46 SE5       30.01F
CRESTON *      MOSUNNY   73  54  49 VRB3      30.02F
HARLAN  *      MOSUNNY   75  50  41 E5G12     30.04F
LAMONI           N/A     78  54  43 SE5       29.99F
RED OAK *      SUNNY     75  54  46 S7        30.00F
SHENANDOAH *   SUNNY     75  55  50 SE9       30.00F
$$

IAZ047>049-059>061-072>074-084-172200-
   CENTRAL IOWA

CITY           SKY/WX    TMP DP  RH WIND       PRES   REMARKS
AMES           PTSUNNY   79  48  33 CALM      30.00F
ANKENY *       MOSUNNY   75  50  41 CALM      30.00F
CHARITON *     MOSUNNY   77  52  41 VRB5      30.01F
DES MOINES     PTSUNNY   79  49  34 VRB5      30.01F
GRINNELL*      MOSUNNY   77  48  36 SW5       30.01F
KNOXVILLE *    MOSUNNY   77  52  41 S9        30.00F HAZE
MARSHALLTOWN   MOSUNNY   76  48  37 W3        30.00F
PELLA *        SUNNY     81  54  39 CALM      30.01F HX  80
PERRY *        CLOUDY    77  46  33 SE3       30.01F
$$

IAZ004>006-015-016-023>025-035-036-172200-
   NORTH CENTRAL IOWA

CITY           SKY/WX    TMP DP  RH WIND       PRES   REMARKS
ALGONA *       SUNNY     75  41  29 CALM      30.03F
CLARION *      SUNNY     77  45  31 CALM      30.02F
ESTHERVILLE    SUNNY     75  41  29 NW12      30.03F
FORT DODGE *   MOSUNNY   75  46  35 N5        30.03F
MASON CITY     SUNNY     76  43  30 SW7       30.03F
FOREST CITY *  SUNNY     73  43  33 NE5       30.02F
IOWA FALLS *   PTSUNNY   77  45  31 NE7       30.02F
$$

IAZ007>011-017>019-026>030-037>042-050>054-066-172200-
   NORTHEAST IOWA

CITY           SKY/WX    TMP DP  RH WIND       PRES   REMARKS
CEDAR RAPIDS   MOSUNNY   75  50  41 CALM      30.00F
CHARLES CITY * SUNNY     77  45  31 W7G14     30.02F
CLINTON *      MOSUNNY   75  48  38 W9G17     30.03F
DECORAH *      PTSUNNY   75  43  31 VRB6G14   30.00F
DUBUQUE        PTSUNNY   77  47  34 W10       30.01F
MONTICELLO *   MOSUNNY   77  48  36 NW3       30.00F
OELWEIN *      MOSUNNY   75  46  35 NW6       30.02F
WATERLOO       SUNNY     79  47  32 W6        30.00F
$$

IAZ064-065-067-068-078-172200-
   EAST CENTRAL IOWA

CITY           SKY/WX    TMP DP  RH WIND       PRES   REMARKS
DAVENPORT      PTSUNNY   78  46  32 SW7       30.01F
IOWA CITY      MOSUNNY   76  50  40 S3        30.02F
MT. PLEASANT * MOSUNNY   79  48  34 SE3       30.00F
MUSCATINE *    MOSUNNY   79  48  34 S6        30.01F
QUAD CITIES    PTSUNNY   79  46  31 W5        30.00F
$$

IAZ062-063-075>077-085>089-095>099-172200-
   SOUTHEAST IOWA

CITY           SKY/WX    TMP DP  RH WIND       PRES   REMARKS
BURLINGTON     MOSUNNY   78  54  43 SW6       30.00F
FAIRFIELD *    PTSUNNY   77  50  38 NW6       30.00F
FORT MADISON * PTSUNNY   81  52  36 W6        30.00F HX  80
KEOKUK *       PTSUNNY   79  54  41 S8        29.98F
OSKALOOSA *    PTSUNNY   77  48  36 CALM      30.01F
CENTERVILLE *  SUNNY     77  54  44 CALM      30.02F
OTTUMWA        PTSUNNY   78  51  38 N5        30.00F
WASHINGTON *   SUNNY     79  50  36 VRB3      30.01F
$$

ABBREVIATIONS USED IN REMARKS
   TC - TEMPERATURES IN CELSIUS
  WCI - WIND CHILL INDEX
   HX - HEAT INDEX
  VSB - VISIBILITY
$$



USA.gov is the U.S. government's official web portal to all federal, state and local government web resources and services.